GFSSW_250_spd_003.txt.gz
Wind_Speed
29 30 29 27 26 25 25 28 29 30 32 31 31 29 28 30 28 29 28 29 30 30 28 27 26 26 27 29 29 30 31 29 27 24 22 20 17 13 12 13 15 16 16 19 19
29 30 31 31 28 30 29 30 31 33 33 32 31 32 32 32 33 33 32 33 32 32 32 31 30 29 29 28 28 28 30 32 31 31 29 26 21 21 16 16 16 18 17 18 20
30 30 30 30 31 32 31 30 31 35 36 35 35 34 34 35 36 35 35 35 36 37 36 34 33 33 33 33 30 33 28 29 33 35 33 31 29 25 24 15 21 16 21 17 20
29 29 29 28 28 28 28 29 29 31 32 34 36 35 37 39 39 38 38 39 39 38 36 35 31 31 33 35 31 32 30 29 28 33 35 36 32 30 32 19 25 20 22 23 21
30 30 29 29 28 28 28 29 29 28 28 28 28 29 30 34 36 36 37 36 34 31 29 28 26 24 25 23 23 26 27 28 27 29 28 34 37 35 41 28 27 27 26 25 26
31 33 32 31 30 30 31 31 32 31 31 32 30 28 31 35 34 32 34 32 28 25 25 24 24 23 24 26 24 26 25 25 27 26 26 28 31 35 44 36 33 32 31 31 30
38 37 35 36 35 36 35 33 35 35 33 31 30 29 32 35 35 32 31 31 31 30 31 29 31 31 29 30 31 29 25 26 33 26 22 25 32 35 34 38 42 36 38 38 35
38 39 38 38 36 38 38 33 35 37 36 35 33 29 33 39 39 38 36 37 36 38 38 34 32 31 33 30 31 30 28 27 37 30 24 21 24 36 33 27 39 45 42 42 44
46 44 42 41 41 41 40 36 36 37 35 31 31 27 36 42 44 41 40 42 42 43 43 42 38 38 42 40 35 32 29 29 34 34 23 20 26 39 38 29 33 40 45 46 41
51 50 50 47 47 46 45 43 41 40 38 37 33 34 34 39 44 44 44 46 46 47 46 43 40 42 49 41 36 36 35 32 33 39 28 23 28 33 36 32 37 40 40 41 42
57 56 58 56 52 54 54 51 47 44 41 41 37 38 34 41 43 46 48 49 51 48 51 45 42 46 55 46 43 39 35 35 38 43 30 28 27 32 39 38 36 37 39 35 33
60 59 61 60 61 59 62 63 60 52 46 47 48 44 44 43 40 49 53 53 51 51 52 45 35 51 52 53 51 45 40 37 37 45 41 35 32 30 39 37 41 38 39 38 33
62 58 62 64 63 62 62 62 65 62 52 49 55 52 52 52 49 52 60 59 56 52 54 49 44 50 54 52 55 49 49 48 41 47 42 39 32 28 36 40 39 45 43 42 41
66 69 64 67 69 66 74 73 68 64 58 53 56 57 59 61 57 61 63 63 59 58 58 49 54 55 56 56 63 46 56 51 48 47 40 42 25 28 36 40 39 45 49 49 46
78 77 72 79 70 75 68 72 77 63 56 56 60 63 65 66 64 63 67 70 72 71 67 57 60 60 60 61 66 57 60 54 51 48 46 43 45 36 40 41 44 48 53 54 57
84 90 74 84 69 79 80 76 78 80 49 62 64 61 70 75 67 63 73 71 73 77 77 70 69 70 68 65 67 67 65 65 63 60 50 48 54 31 41 42 46 48 50 51 57
86 91 78 87 78 78 88 81 87 79 73 60 65 79 73 66 78 83 75 79 79 85 80 85 69 72 79 79 77 80 75 74 74 69 60 60 49 39 47 49 49 50 52 52 53
87 89 85 87 87 86 88 78 80 80 87 78 80 75 85 91 74 85 90 78 82 86 94 87 77 86 77 81 83 82 85 84 85 75 68 66 54 45 48 55 55 58 59 58 59
93 97 94 95 92 100 97 94 91 85 91 90 88 91 85 92 93 90 93 91 83 96 90 99 84 95 88 90 90 87 87 86 92 79 82 69 58 52 53 61 62 63 61 63 65
108 105 100 105 107 102 101 100 97 95 98 103 107 101 95 99 104 102 98 95 96 93 96 97 98 97 102 101 98 98 98 88 93 101 106 85 70 59 64 62 62 57 63 68 71
116 115 107 109 113 113 107 108 103 104 105 112 117 117 109 104 110 108 109 106 104 101 106 109 116 108 111 109 112 109 113 106 97 100 104 103 87 92 67 64 68 76 73 77 76
124 123 117 118 125 126 120 116 116 115 119 119 118 118 120 117 118 121 120 118 119 123 120 120 127 126 125 118 117 117 123 125 121 111 118 121 115 92 93 95 96 94 99 99 90
137 134 131 133 134 134 133 133 130 116 113 119 120 126 139 139 140 128 131 124 125 129 133 136 142 147 139 136 131 130 126 130 128 126 122 125 124 103 107 106 106 112 107 109 104
141 140 139 140 140 140 141 138 131 125 125 128 144 154 159 150 144 147 137 132 124 130 142 144 145 149 153 152 147 139 134 128 129 131 129 130 122 118 102 104 105 106 108 105 100
156 157 153 154 148 153 155 154 152 150 156 156 154 156 156 164 165 162 154 150 150 145 146 152 158 155 142 140 141 147 138 135 138 132 135 128 124 108 108 107 108 111 102 103 105
164 161 161 160 161 167 162 164 170 169 166 164 163 162 168 171 162 161 148 152 144 143 138 129 136 135 146 137 131 129 131 132 128 127 128 129 129 114 117 119 115 105 101 109 108
168 170 169 172 167 167 165 165 160 162 160 156 147 145 133 131 133 131 126 130 128 117 111 112 120 121 129 126 132 135 123 125 128 128 129 130 129 127 126 124 119 115 113 117 115

GFSSW_250_spd_006.txt.gz
Wind_Speed
30 29 29 29 29 28 27 26 27 27 29 28 30 30 32 32 32 33 32 32 33 32 31 30 29 28 26 25 26 27 29 33 36 35 34 30 28 26 23 21 21 18 17 18 23
28 30 32 30 30 30 29 29 30 30 30 30 32 33 34 35 32 33 33 33 34 34 34 33 33 31 27 26 26 27 27 27 30 34 36 37 34 31 30 26 26 22 24 21 21
27 28 30 31 31 29 30 30 29 31 30 29 29 31 32 34 32 31 32 32 33 34 34 34 33 28 25 20 17 19 19 20 23 26 32 37 40 35 35 32 26 30 24 27 24
31 28 29 28 28 28 30 30 29 29 28 26 26 28 30 32 31 29 30 29 31 29 29 28 27 23 20 18 13 18 18 15 20 20 21 25 33 39 42 33 33 32 31 30 29
30 30 30 29 30 28 29 28 27 27 28 27 27 28 30 33 30 30 31 30 29 26 21 20 23 19 20 19 18 20 24 21 20 20 19 19 21 25 39 32 34 37 36 33 33
35 34 32 31 32 32 31 30 29 29 30 31 30 30 32 37 33 32 31 29 29 28 25 22 23 22 26 26 23 25 24 26 28 25 21 17 26 26 29 26 30 36 40 40 38
36 37 38 37 37 35 34 32 33 33 32 28 30 29 32 40 38 34 32 34 34 34 32 29 29 29 29 28 26 24 21 24 32 30 24 20 32 33 28 26 32 33 36 40 43
41 41 41 41 39 40 41 36 35 34 30 30 28 26 30 39 38 37 35 36 36 36 36 36 35 34 36 36 36 31 26 28 38 32 26 20 27 40 31 28 32 33 37 36 41
47 47 47 45 45 44 44 41 39 38 37 34 27 28 32 40 41 39 39 37 36 39 36 37 35 37 43 45 38 40 32 30 36 40 32 24 23 41 40 31 32 33 33 34 34
45 49 50 51 49 50 49 50 46 43 42 39 37 35 35 39 43 44 46 45 43 42 40 39 36 37 48 46 38 41 38 37 35 47 36 30 25 33 45 39 38 38 36 33 28
59 56 53 51 48 51 54 53 52 52 49 47 44 43 43 43 45 50 51 49 46 45 47 42 42 44 53 46 39 37 37 37 43 48 42 36 30 31 40 46 49 46 46 41 36
58 62 56 56 58 55 57 53 53 50 46 51 49 46 53 53 50 59 59 54 53 54 55 49 45 54 55 52 48 45 42 38 38 47 43 38 31 34 39 47 52 51 51 45 40
67 58 65 64 65 66 67 60 61 56 47 50 52 54 51 56 54 60 61 60 58 56 59 55 51 58 59 56 55 51 52 49 43 45 42 41 30 39 40 41 51 57 54 49 45
64 68 72 68 69 74 64 66 66 59 49 45 57 62 63 60 51 59 64 63 61 62 62 56 63 61 59 60 69 54 65 57 53 50 41 45 26 40 46 44 44 54 58 61 57
81 76 69 71 74 69 72 82 72 79 46 60 48 56 60 65 68 65 67 58 58 65 72 66 62 64 62 68 70 65 71 69 64 57 50 46 44 34 46 50 49 52 55 61 62
81 74 79 81 76 81 82 77 80 76 67 64 72 66 70 65 74 74 63 68 68 67 67 58 65 71 73 68 73 80 82 75 70 70 48 55 59 33 49 52 53 52 54 54 60
84 84 79 87 91 86 85 88 91 81 82 83 79 83 68 74 74 75 82 70 78 80 72 83 79 73 80 86 83 86 86 86 74 74 78 75 71 51 56 58 60 61 61 59 59
89 90 90 88 94 93 93 93 98 89 87 95 93 87 89 88 84 81 79 81 82 85 88 82 74 84 81 85 89 92 87 92 101 88 74 84 74 62 65 65 60 56 60 68 68
97 96 93 97 95 97 103 97 96 90 94 99 94 95 95 95 93 94 95 89 88 94 94 100 87 87 87 93 91 93 93 100 107 102 101 86 83 77 78 72 71 72 79 77 77
108 104 100 102 102 106 108 103 97 96 101 106 108 102 98 103 105 104 105 102 99 102 106 108 116 97 99 99 97 103 103 102 109 116 111 101 105 99 88 84 86 89 81 91 79
117 115 111 113 114 118 114 108 110 112 108 115 113 116 112 112 114 116 116 109 111 111 115 121 125 109 106 104 110 113 121 121 121 121 124 123 115 101 103 99 98 96 98 98 94
123 122 120 120 121 118 125 117 116 115 120 121 125 121 120 117 123 127 128 119 113 121 126 125 130 132 118 121 118 122 136 140 137 134 132 136 136 110 104 107 108 100 101 113 103
129 126 130 130 131 125 122 122 120 127 125 135 133 127 126 130 131 127 130 128 128 126 126 131 137 138 140 134 128 149 148 151 147 154 152 149 146 126 120 112 106 109 108 112 109
140 138 137 146 143 138 135 136 141 131 127 140 146 144 141 140 135 137 138 136 137 136 134 133 133 138 148 148 144 158 155 149 143 151 154 156 148 130 110 101 97 100 103 105 109
158 157 155 152 157 154 153 149 146 142 142 150 155 157 151 149 145 146 151 144 146 144 143 147 153 153 154 159 166 163 150 148 146 140 144 139 140 130 117 104 106 106 97 104 110
173 176 176 172 175 174 169 169 171 164 165 164 166 157 159 159 155 151 152 164 158 154 159 160 163 156 155 149 131 128 126 122 119 113 126 134 136 126 121 117 115 115 105 112 117
171 160 158 157 158 158 144 154 152 162 165 170 164 167 164 164 165 163 170 172 167 155 150 146 135 134 130 126 127 123 106 102 104 110 112 114 112 121 122 122 119 119 114 112 111

GFSSW_250_spd_009.txt.gz
Wind_Speed
27 29 28 28 29 30 29 29 29 29 28 29 29 30 31 32 32 32 32 31 30 32 32 32 31 30 30 29 27 25 25 26 28 28 32 35 37 35 34 34 29 28 26 22 23
29 29 28 28 30 30 30 30 28 29 30 31 32 33 32 32 32 31 30 29 27 26 27 28 28 28 24 22 19 18 19 17 22 24 27 29 32 34 40 39 33 36 31 29 26
29 31 29 28 28 28 28 29 28 28 29 29 28 29 30 29 23 24 25 22 23 22 22 23 23 23 17 13 11 13 11 11 15 14 17 20 26 30 36 41 33 38 39 35 32
30 31 30 30 29 28 26 26 27 26 26 26 24 25 27 30 28 27 27 25 26 23 21 20 21 18 17 14 12 13 15 12 16 13 14 16 19 20 28 27 28 37 43 43 37
33 33 33 31 30 31 30 28 28 27 26 26 26 27 30 34 30 30 31 30 30 28 25 21 20 20 22 18 14 20 22 23 20 19 18 17 24 23 27 18 28 28 38 44 44
34 34 33 34 35 34 32 30 31 32 29 28 29 30 33 40 36 33 33 32 31 32 32 30 28 25 26 27 24 24 23 22 25 22 21 19 29 28 29 22 29 26 27 32 43
38 32 32 35 34 36 37 35 35 32 32 31 31 30 34 43 38 35 31 32 34 34 34 32 31 31 31 35 33 29 27 30 31 31 26 21 31 35 32 28 33 33 30 30 32
41 38 40 39 38 38 38 40 39 38 38 34 32 29 34 44 41 39 36 36 36 33 33 35 32 33 36 36 36 38 32 34 41 40 34 31 27 43 37 33 36 35 34 32 30
47 48 48 44 42 39 37 37 38 40 39 38 37 35 37 45 46 45 42 42 39 40 36 35 34 35 42 42 35 40 35 38 40 48 38 35 27 42 42 42 42 44 37 35 31
50 48 49 51 48 46 46 45 39 39 38 43 43 43 42 48 48 48 50 48 45 44 45 42 39 38 44 47 41 41 39 39 39 52 43 36 33 33 46 44 45 51 48 41 36
55 57 52 50 48 49 50 53 50 44 42 39 39 40 47 50 50 55 56 54 53 54 55 50 44 44 51 48 46 43 40 39 41 47 40 36 29 38 42 50 51 49 53 51 46
54 58 59 61 59 59 59 56 52 50 48 50 51 47 47 46 46 51 57 57 56 54 57 53 49 52 52 53 51 49 46 42 41 44 41 38 30 33 40 45 55 56 53 54 52
60 58 65 67 68 67 59 60 60 57 53 57 60 50 55 51 50 55 58 60 60 62 58 46 47 58 56 57 60 58 57 50 42 44 38 35 26 36 44 48 49 55 54 54 54
77 71 72 70 71 68 65 69 58 56 51 48 57 63 59 62 57 59 65 66 60 61 62 59 66 64 60 56 63 54 66 62 58 51 45 47 27 37 43 48 49 49 52 56 58
77 86 83 82 72 74 78 82 75 69 58 61 53 56 66 69 63 70 67 66 65 66 69 65 62 64 60 70 68 54 66 66 64 65 62 49 60 38 39 47 50 52 57 58 63
80 80 86 82 89 83 72 87 85 73 68 68 75 73 73 72 81 83 72 81 86 76 72 68 72 59 71 70 73 77 80 83 79 71 51 64 71 30 49 48 53 52 55 61 61
82 89 84 92 83 83 79 75 89 82 78 74 73 81 84 82 82 84 92 80 83 89 79 74 78 79 73 78 80 81 85 86 87 90 78 72 63 46 56 61 60 61 62 69 74
92 88 91 86 93 85 85 90 85 84 80 85 87 89 90 94 90 90 90 89 88 89 87 83 80 87 87 86 87 85 92 94 100 94 90 89 80 71 72 64 67 73 79 85 86
93 92 90 97 97 98 98 96 90 90 85 93 101 96 94 95 99 99 97 97 92 92 96 98 92 90 97 93 94 96 99 100 112 109 106 96 95 89 83 80 79 77 85 91 91
101 101 98 103 105 105 106 101 97 97 102 105 107 104 101 103 108 107 104 101 98 102 109 114 106 97 99 103 101 110 108 109 111 116 113 111 107 98 90 90 98 103 90 95 99
108 109 106 107 106 111 109 106 106 104 107 109 113 115 111 111 114 114 113 109 107 113 118 116 120 109 112 107 110 114 113 115 119 120 124 125 125 104 98 97 101 105 103 112 112
121 110 115 111 121 123 117 111 116 114 117 120 120 118 123 117 114 118 114 117 118 118 124 118 129 128 124 120 119 123 121 115 126 129 136 139 141 120 115 110 105 110 122 125 117
126 127 119 131 130 130 132 121 116 123 127 123 127 129 123 120 130 128 127 126 132 132 131 133 132 139 141 130 131 134 131 134 133 137 140 142 141 129 122 124 125 127 131 133 142
143 138 143 141 146 139 139 135 133 125 129 140 144 141 143 136 134 145 143 141 142 138 137 141 143 150 151 144 138 136 143 140 142 147 145 147 143 140 134 131 124 130 142 149 136
159 159 158 152 153 154 156 154 150 145 150 148 149 150 151 157 154 157 156 150 142 138 139 148 153 146 152 159 150 152 152 149 147 152 150 149 147 151 148 155 147 130 116 108 113
168 167 166 162 162 164 163 164 163 157 161 160 167 164 164 163 171 173 171 173 171 168 174 169 169 161 158 152 162 163 159 150 152 153 157 155 160 162 132 125 115 115 115 110 111
174 172 174 169 168 170 165 168 174 169 169 166 158 159 151 155 153 145 143 134 137 139 133 131 130 134 134 135 144 137 129 141 138 136 134 127 121 123 125 117 111 104 99 94 91

GFSSW_250_spd_012.txt.gz
Wind_Speed
29 29 29 30 29 29 28 29 31 32 30 29 30 31 30 30 29 29 29 30 29 27 26 26 25 27 28 27 26 23 26 24 25 26 27 27 29 30 34 35 35 33 33 31 31
30 30 31 31 30 29 27 27 30 30 29 30 30 31 33 32 31 29 27 23 23 22 20 19 22 24 23 22 19 17 20 11 15 16 17 18 19 25 30 30 31 36 36 35 35
29 30 31 31 31 30 28 27 27 27 28 29 30 30 30 28 23 24 22 23 23 22 22 23 22 22 22 18 16 18 17 11 15 13 15 14 18 22 24 23 24 25 32 35 34
29 29 31 33 32 30 31 29 27 26 25 25 25 27 28 27 27 27 27 26 26 25 25 25 25 22 23 22 22 18 21 19 21 17 17 19 24 26 25 19 29 25 23 22 35
34 32 33 31 32 33 32 30 30 29 29 27 28 29 31 33 30 29 32 30 30 30 29 27 27 25 25 26 24 23 27 26 27 23 24 21 25 31 28 20 31 28 27 24 21
36 35 35 34 32 30 30 30 32 31 30 30 30 30 33 41 35 34 34 33 32 31 29 27 30 28 29 30 30 29 32 33 33 30 27 23 28 33 32 27 34 32 32 33 28
37 39 35 35 33 30 29 31 32 30 31 31 32 31 35 46 42 39 34 36 36 32 30 28 27 25 28 32 32 32 32 38 43 38 37 31 31 43 39 36 36 39 34 32 35
40 43 41 38 39 37 34 33 33 30 27 30 31 30 33 43 42 42 39 39 39 37 36 33 30 30 31 33 30 32 29 33 41 41 38 34 30 44 41 38 39 40 40 35 32
46 43 41 42 42 41 41 38 37 35 31 27 29 31 34 43 46 46 45 45 45 40 37 39 37 33 37 44 35 37 28 30 35 50 38 34 30 36 40 41 39 43 46 40 37
51 50 43 46 46 47 46 41 38 38 38 35 35 34 34 37 43 45 47 46 44 45 45 42 36 36 46 52 44 42 37 34 35 49 37 30 27 32 38 39 42 44 45 45 41
56 53 54 52 50 48 47 48 52 46 42 42 41 42 42 44 47 50 50 49 46 45 46 43 42 45 55 53 48 45 42 41 45 47 37 30 26 32 40 43 48 47 47 44 46
56 58 62 58 56 55 53 57 56 52 50 53 55 53 54 52 50 53 54 51 49 50 50 44 42 52 49 50 51 47 49 47 45 50 44 35 28 31 36 42 44 51 52 52 50
55 59 60 62 62 61 63 67 60 50 50 55 59 53 54 57 53 56 57 58 57 59 61 54 53 56 54 52 56 58 57 54 49 53 51 46 28 29 37 42 44 46 51 53 53
67 65 54 62 62 70 68 72 70 72 61 48 59 62 66 63 61 65 62 57 60 60 60 58 68 63 62 64 67 54 69 56 53 49 43 43 28 29 39 50 53 48 46 52 56
69 62 74 75 70 67 62 74 70 78 67 63 57 63 75 77 75 72 69 76 71 77 74 72 69 73 77 76 71 72 79 67 70 58 46 41 47 46 50 44 52 55 56 57 59
75 75 73 81 85 74 79 70 72 72 61 75 75 71 68 73 80 74 71 79 79 79 77 81 84 76 77 80 84 78 80 82 73 72 67 58 60 42 49 51 50 53 56 60 62
84 86 77 76 85 86 87 85 78 75 68 75 74 79 79 74 71 79 88 86 80 83 87 79 88 89 85 86 87 91 91 84 85 83 78 85 80 64 67 63 67 72 70 71 73
86 87 83 83 86 90 93 95 88 79 81 82 83 90 82 83 81 88 89 81 88 86 94 93 80 91 92 93 94 93 95 98 100 100 96 97 96 72 76 78 77 79 84 91 101
90 90 90 95 89 95 99 93 88 86 89 92 91 91 92 94 95 89 90 94 88 96 95 100 94 87 94 95 98 100 100 101 106 107 107 100 100 99 97 84 88 97 97 106 101
101 96 97 103 100 101 105 94 98 94 99 98 97 99 95 102 101 100 103 92 94 97 107 109 108 97 99 102 103 105 107 105 110 118 116 118 107 102 100 93 93 99 103 106 108
111 111 108 108 107 107 107 104 101 100 106 105 109 114 108 106 107 109 114 107 104 110 110 115 119 107 112 113 108 115 111 116 124 118 128 126 118 96 107 96 105 106 113 112 110
127 123 118 118 122 121 119 118 114 106 115 116 119 114 116 117 126 121 124 125 122 124 124 122 128 133 124 125 124 124 124 118 130 131 131 136 140 115 110 105 113 113 116 121 122
134 134 130 132 133 133 133 132 132 128 125 126 127 127 138 137 141 140 142 137 136 134 128 133 137 141 144 133 134 132 132 133 133 137 139 144 149 129 126 123 118 117 114 115 114
147 149 154 157 152 153 147 143 148 139 138 140 141 144 141 146 144 147 146 141 139 141 146 147 152 150 147 140 140 139 135 131 138 143 144 146 145 139 139 134 128 130 127 129 128
155 156 154 156 159 159 162 158 153 150 157 158 157 157 159 160 160 160 159 158 162 162 159 157 156 153 159 158 152 145 146 137 135 142 145 144 146 145 147 154 146 144 141 136 141
165 168 171 167 166 163 160 160 159 153 158 157 164 160 154 158 154 150 152 155 156 154 152 151 149 152 151 153 156 156 148 143 144 137 148 152 145 143 139 128 132 129 126 121 113
170 160 156 161 162 161 158 164 161 161 155 150 142 137 132 134 136 135 133 135 133 131 129 132 132 128 126 128 132 127 118 124 122 123 132 134 124 118 114 113 114 117 118 120 116

GFSSW_250_spd_015.txt.gz
Wind_Speed
27 31 30 30 29 31 30 30 30 30 29 30 31 31 30 30 28 29 30 28 26 25 22 21 19 20 22 22 21 22 23 20 17 20 20 22 21 18 22 24 24 21 23 27 28
29 29 28 29 29 28 30 30 29 28 28 29 30 30 30 30 29 30 30 26 23 22 21 21 21 22 21 21 22 19 22 17 13 11 16 17 18 21 25 22 21 22 18 20 23
30 31 30 29 29 28 29 29 29 28 27 27 28 30 31 32 28 28 26 24 24 24 23 23 24 24 23 22 22 22 22 19 16 14 17 18 21 26 26 21 20 28 23 21 19
33 32 31 31 28 26 28 30 31 28 28 26 25 27 28 30 27 25 27 27 27 25 25 24 22 20 21 21 22 24 27 26 24 20 17 22 27 32 26 22 24 27 27 25 24
33 34 34 34 31 32 29 30 30 28 27 25 25 27 30 35 28 26 29 29 30 29 28 26 26 21 24 23 19 23 27 27 27 27 21 20 23 35 30 25 27 32 30 29 25
32 33 32 35 33 32 32 30 27 25 22 23 23 24 27 38 30 29 31 32 32 30 30 29 28 24 26 27 24 25 24 26 27 22 23 30 27 36 37 30 33 36 38 35 32
31 32 35 33 35 35 33 32 30 26 26 23 23 23 28 37 32 29 26 26 29 30 30 29 26 28 28 31 29 27 24 29 33 26 21 23 27 32 34 29 31 34 38 37 34
36 37 38 37 35 36 38 36 35 34 32 30 26 23 29 38 34 35 32 30 30 32 31 33 32 29 31 33 32 32 26 29 42 39 24 19 21 33 34 32 32 35 37 36 34
44 43 43 38 41 42 36 37 37 36 34 34 34 32 33 39 40 37 37 35 31 30 32 35 34 32 38 41 36 36 30 34 38 49 36 23 21 31 36 34 35 37 37 36 35
46 44 42 42 43 45 42 40 39 38 35 35 33 32 31 37 40 45 45 42 43 42 38 38 33 33 42 42 34 37 36 36 36 49 42 31 27 32 36 37 38 41 42 42 41
51 50 51 52 51 48 48 44 44 42 45 45 41 41 44 41 45 51 53 52 52 49 46 41 36 38 44 42 38 36 35 33 35 35 28 34 34 35 37 41 45 44 43 43 43
55 54 55 56 58 55 54 51 53 46 45 47 47 45 45 46 45 52 57 56 54 52 53 47 41 48 47 49 44 40 40 40 37 37 36 37 34 37 43 48 48 50 49 44 48
52 58 61 61 62 60 60 55 54 50 45 53 58 56 60 61 60 65 65 62 58 58 61 58 56 56 54 49 53 58 55 48 41 49 48 28 24 27 38 46 55 50 46 48 48
65 59 55 63 71 65 65 58 61 56 48 51 57 57 66 67 68 69 73 73 66 66 70 65 68 62 59 65 69 61 70 66 70 57 43 49 18 31 39 44 51 54 52 53 57
64 70 68 71 65 67 67 67 55 66 63 57 53 60 64 66 70 71 74 77 75 67 68 68 69 72 73 70 71 73 72 70 64 67 53 46 51 34 34 40 44 55 65 67 66
77 74 77 70 78 73 70 59 67 69 55 59 68 75 70 74 70 65 70 73 76 80 70 70 64 57 71 82 87 79 74 80 82 81 63 62 65 37 51 55 61 69 69 68 76
80 87 80 79 74 82 81 69 69 68 73 72 73 69 77 84 74 86 83 73 75 75 84 84 80 73 83 76 82 86 86 91 80 83 80 76 70 60 70 67 71 77 79 78 82
93 89 86 84 87 87 89 81 75 82 73 81 85 78 78 78 89 86 85 89 82 90 78 83 80 87 86 85 85 88 95 96 100 95 88 92 85 76 83 83 85 88 88 88 97
93 94 95 95 93 97 97 89 85 89 90 87 87 95 88 86 95 92 96 85 90 95 98 96 91 89 93 92 91 92 95 101 105 107 111 101 95 82 88 98 100 101 99 105 108
109 102 102 104 103 101 101 101 96 97 99 102 97 98 102 100 100 102 104 100 99 100 103 105 107 102 104 103 104 102 104 108 109 119 125 118 108 100 95 101 107 114 110 106 106
110 116 108 113 115 110 104 109 108 105 110 109 109 116 117 111 109 111 110 109 109 109 112 116 114 110 119 114 116 119 122 121 126 129 132 130 124 105 109 109 110 113 117 113 107
121 124 122 127 124 122 127 128 121 112 120 121 122 120 120 119 119 124 119 121 122 123 126 124 132 135 126 129 130 127 131 126 129 129 129 134 137 114 117 112 115 110 115 117 114
130 128 133 133 136 138 135 130 131 125 122 131 132 131 130 135 136 134 134 133 136 140 142 141 140 144 147 139 140 144 144 142 140 141 138 137 138 129 127 122 124 120 117 118 120
135 133 137 138 135 120 140 137 141 139 136 145 148 148 143 145 149 149 147 148 149 153 155 157 156 155 154 150 143 149 147 144 138 138 133 139 136 130 140 139 135 130 124 126 126
151 155 146 142 147 152 151 147 151 149 155 150 153 156 155 161 161 160 160 161 153 146 137 137 140 138 136 135 143 142 136 132 132 138 141 143 148 149 152 138 136 139 141 138 132
158 156 160 158 156 156 158 156 157 151 153 147 157 150 151 152 149 143 136 135 136 134 132 133 134 132 130 124 126 124 116 112 119 123 130 132 127 127 125 121 120 119 122 125 122
136 138 137 134 130 135 132 138 135 135 135 129 131 131 131 134 134 137 135 132 124 120 123 126 122 122 124 125 126 121 105 114 115 114 119 121 122 119 117 115 114 111 109 108 109

GFSSW_250_spd_021.txt.gz
Wind_Speed
30 29 28 26 25 25 26 27 28 29 28 29 31 30 30 30 32 32 29 28 28 27 24 24 23 20 19 20 19 19 16 14 15 17 17 14 14 18 13 8 15 16 18 18 16
30 29 30 29 28 27 27 26 25 25 26 27 28 28 29 31 30 31 28 29 27 27 25 20 20 19 20 20 20 21 17 13 14 16 18 17 19 22 23 13 19 19 21 19 18
30 30 30 31 32 31 29 27 27 25 26 26 27 28 30 31 30 29 29 27 25 25 23 20 20 21 22 22 22 27 22 18 15 15 18 17 21 27 31 16 19 25 24 25 23
31 30 32 31 33 33 32 31 29 27 25 24 26 29 30 32 28 27 29 28 25 25 24 23 21 22 26 27 26 27 27 21 18 15 15 17 23 27 28 17 22 32 32 32 30
30 30 32 32 34 33 33 33 32 31 29 29 30 31 33 36 30 27 31 29 27 27 26 25 26 26 28 29 26 27 29 28 24 21 17 18 25 27 36 22 26 28 32 35 33
22 26 29 30 30 33 33 33 33 32 32 32 31 31 33 37 31 27 30 31 31 30 29 27 28 27 29 30 27 27 29 30 30 27 25 20 29 24 40 32 33 33 35 36 34
26 28 26 28 31 28 30 30 29 31 33 34 32 34 36 39 35 32 30 31 32 32 30 30 29 29 32 32 30 31 28 33 37 33 32 24 31 34 35 34 37 40 38 35 33
27 28 29 29 26 30 29 31 31 31 31 32 30 33 36 41 39 39 37 36 34 33 33 33 33 30 33 34 35 36 32 35 42 40 32 29 29 39 38 39 41 45 46 39 37
31 32 31 30 32 31 30 31 32 35 31 29 33 34 33 36 40 41 39 41 42 42 42 41 37 34 38 37 35 38 34 36 38 47 42 36 30 38 45 45 44 47 43 38 37
36 35 37 36 35 36 33 32 31 32 33 37 35 37 35 37 40 42 44 43 42 44 40 40 39 40 46 42 36 39 38 37 39 48 46 36 32 34 45 45 42 41 40 39 39
43 43 42 41 41 39 37 36 35 35 37 39 41 42 42 42 41 43 44 46 48 46 47 47 46 44 46 44 49 44 39 37 41 46 41 38 33 34 35 41 47 48 47 48 47
50 49 47 47 47 46 46 46 42 40 40 45 44 45 46 49 47 48 49 50 51 49 50 48 47 48 53 54 53 48 44 47 46 47 44 44 42 48 44 44 48 53 53 56 56
57 56 53 50 49 50 50 52 50 50 50 51 53 49 48 52 52 53 56 56 57 57 56 54 51 51 54 54 55 53 52 53 55 51 49 47 46 50 54 53 56 59 57 57 58
58 59 56 57 55 54 54 56 58 56 56 57 55 57 58 58 60 61 58 55 57 60 62 59 57 56 57 60 63 61 60 52 49 49 53 53 51 53 57 61 60 59 61 64 63
65 66 65 58 60 57 56 60 62 61 62 62 59 58 61 58 58 61 60 63 63 60 60 63 58 60 58 59 59 60 60 60 59 60 54 50 52 54 57 59 59 58 63 67 69
69 66 66 64 60 63 60 64 62 63 55 54 57 63 62 66 67 60 66 63 64 62 60 64 62 70 79 78 75 77 73 78 70 68 60 68 68 56 62 68 65 74 75 76 73
73 72 70 65 61 64 69 68 69 64 61 61 64 66 70 68 66 73 72 75 80 73 75 78 79 81 80 83 87 92 95 89 85 87 78 85 78 76 79 81 80 81 84 86 89
73 69 68 70 75 77 78 77 73 76 80 80 86 83 79 77 76 79 83 77 84 86 88 88 86 91 89 91 93 94 97 102 103 95 95 96 94 85 89 88 89 94 92 93 96
82 79 77 83 83 85 83 84 81 87 87 89 88 90 93 93 93 90 93 85 92 98 95 98 99 97 96 98 102 102 103 106 113 109 110 97 99 98 101 99 97 102 101 101 102
89 89 89 87 89 89 91 91 95 98 96 95 97 99 99 101 99 105 98 92 99 105 108 109 106 105 109 109 109 112 111 114 114 119 117 114 108 110 107 108 110 106 109 113 111
99 97 97 100 98 96 94 99 103 103 103 106 104 105 106 109 106 108 104 107 110 112 113 118 121 112 120 118 122 126 123 122 122 122 121 121 117 114 118 117 116 119 114 118 121
107 105 104 107 107 102 101 106 108 113 111 108 111 112 106 109 118 114 117 123 121 124 124 129 135 132 125 119 122 116 114 118 122 122 125 129 129 123 122 125 119 127 134 123 126
111 110 111 112 113 111 113 112 116 116 116 120 124 116 123 120 122 126 124 125 128 132 132 134 142 144 137 130 119 121 117 119 119 126 129 132 128 134 135 134 129 129 134 137 134
117 118 117 114 114 120 123 123 123 117 117 121 125 127 128 132 132 126 131 135 136 141 143 136 130 130 127 120 116 122 121 122 126 126 132 138 138 139 133 145 141 135 123 114 114
123 122 119 123 123 126 128 123 121 128 129 128 133 136 138 138 139 141 143 142 134 129 127 128 124 123 118 114 114 116 116 113 116 123 135 132 134 124 128 137 127 119 113 115 115
118 125 134 131 131 129 126 132 138 141 136 138 135 138 140 142 145 144 136 130 125 126 124 127 122 120 116 117 121 118 104 110 117 116 121 124 123 119 123 122 120 117 118 119 114
137 142 141 142 144 143 142 143 141 139 141 142 144 144 145 142 138 132 128 126 122 119 118 119 121 121 116 117 121 111 111 117 116 114 118 120 118 113 116 114 111 110 112 112 111

GFSSW_250_spd_024.txt.gz
Wind_Speed
29 29 30 30 29 28 26 26 24 25 26 28 27 28 28 29 29 29 27 26 28 29 27 25 25 24 22 20 18 18 15 11 11 11 14 16 14 19 11 5 14 16 16 15 14
30 30 32 31 31 31 29 27 27 26 26 26 27 27 28 27 27 28 28 27 28 27 25 24 22 22 22 20 20 20 18 17 13 14 16 15 17 21 23 8 12 19 19 16 14
32 32 33 33 32 32 32 31 28 27 27 27 27 29 28 27 26 26 27 28 28 27 24 23 23 23 23 24 21 25 26 21 16 18 19 18 18 23 25 7 9 22 25 26 21
30 31 32 33 33 33 33 33 31 30 29 29 28 26 26 28 28 25 29 30 27 26 27 25 25 24 25 24 25 27 29 27 25 20 20 23 24 24 31 20 18 23 24 30 28
31 31 31 33 33 33 34 34 33 31 30 30 30 31 31 32 29 24 30 31 30 28 26 25 26 27 29 29 29 30 31 31 30 27 22 30 31 25 37 30 27 26 29 28 29
30 30 29 29 31 33 34 32 31 33 32 32 31 30 32 34 30 27 28 30 28 27 28 28 27 28 30 32 29 32 30 32 33 32 29 30 36 32 38 35 36 34 34 30 29
34 32 31 30 29 30 28 30 29 30 30 30 30 30 33 34 33 30 30 30 32 31 30 32 32 32 32 33 31 33 31 36 39 35 32 32 35 39 39 42 41 42 41 38 34
32 32 31 30 30 30 29 31 32 30 31 32 32 32 32 36 34 34 33 36 35 36 35 34 33 34 35 35 34 35 32 31 39 37 33 27 30 45 43 43 43 48 48 46 44
34 33 31 33 30 30 30 31 32 33 33 32 34 36 35 36 39 38 37 35 36 39 40 39 40 40 40 40 38 39 36 37 37 41 43 37 28 40 52 47 49 52 51 47 45
36 35 35 34 32 32 33 34 33 34 33 35 35 36 34 37 38 41 41 40 38 38 40 41 43 44 48 46 41 42 44 41 40 40 42 43 39 40 47 53 51 52 53 48 38
39 40 38 37 37 37 37 37 38 34 36 37 37 39 39 40 40 43 45 46 45 43 42 40 44 47 49 52 48 49 50 49 44 50 48 45 43 41 44 48 52 52 49 44 43
47 46 44 43 42 44 44 45 44 42 41 46 46 43 43 46 45 47 48 46 48 48 48 48 48 49 48 53 54 54 49 50 51 53 50 47 45 50 51 51 54 49 52 58 58
53 49 50 49 52 51 51 52 51 49 47 48 51 49 50 53 53 54 59 54 51 51 53 51 51 56 55 56 57 56 54 54 54 54 52 52 48 51 54 54 54 49 60 63 62
55 55 52 54 56 55 56 53 54 52 52 50 52 53 55 57 57 60 61 62 63 61 57 54 54 54 57 58 60 61 61 58 53 49 45 49 49 52 55 58 56 58 61 62 65
59 60 59 58 57 59 60 62 61 62 57 56 55 57 60 59 58 54 56 62 62 63 61 58 55 60 56 57 49 54 58 61 65 63 59 56 51 51 57 57 59 64 64 64 66
62 64 64 65 67 65 64 68 66 68 60 61 63 61 60 63 59 56 56 57 58 59 58 59 57 61 65 64 69 65 67 67 69 70 69 73 66 58 66 74 79 67 71 75 72
66 67 69 70 68 66 68 69 73 70 64 57 61 66 65 64 65 65 65 69 65 67 63 67 69 62 65 70 77 79 79 76 77 81 74 79 79 79 85 86 87 89 87 83 88
68 71 73 74 77 78 78 76 69 61 65 68 68 67 68 69 68 69 70 69 72 70 75 78 77 83 80 83 80 83 87 92 91 88 90 92 91 91 100 103 100 99 100 108 111
82 81 81 78 79 77 77 76 71 74 75 76 74 74 81 79 78 77 80 81 80 82 84 85 88 93 94 87 90 90 96 102 106 103 107 98 103 106 108 110 113 111 108 114 110
84 87 91 87 86 81 80 80 77 84 82 86 85 85 86 89 89 87 87 87 92 91 91 92 88 94 96 96 103 111 110 113 116 117 118 117 116 112 116 122 117 113 118 117 116
91 92 89 92 95 93 88 84 84 89 90 92 91 91 92 93 96 95 95 99 100 99 105 104 104 104 105 107 114 119 117 120 125 129 134 137 127 121 117 116 113 115 116 113 114
100 99 99 102 101 97 94 97 96 92 94 96 97 98 98 102 105 102 105 109 102 105 106 111 114 116 115 118 126 128 128 131 131 131 133 135 132 122 117 117 117 115 116 119 119
105 106 107 106 105 104 104 100 101 98 102 102 104 105 108 108 110 108 109 110 109 111 113 114 124 130 124 123 130 131 132 133 137 140 130 126 124 126 121 121 121 115 114 113 116
111 113 113 111 109 110 108 106 107 109 108 110 111 116 113 115 115 112 107 105 112 123 122 131 136 139 135 128 135 140 140 136 135 127 123 118 122 113 117 120 120 116 114 111 110
117 118 113 113 111 117 116 111 113 115 119 117 119 117 118 119 119 115 113 127 128 128 137 144 141 139 134 135 136 135 128 120 121 123 130 119 121 114 117 119 118 119 114 112 111
121 116 119 117 119 119 120 119 121 125 121 118 118 121 119 118 122 130 136 137 140 142 147 139 136 136 137 136 137 128 114 120 118 117 120 124 119 117 115 115 116 114 114 116 114
129 133 128 126 128 129 123 128 128 127 126 122 125 130 127 141 139 140 144 146 144 145 138 140 139 141 135 136 134 118 119 121 121 121 119 120 119 117 116 114 112 113 114 110 108

GFSSW_250_spd_027.txt.gz
Wind_Speed
31 30 30 31 32 30 30 29 28 26 25 25 25 25 26 26 26 25 24 23 24 25 24 23 23 24 24 22 21 19 18 14 14 13 14 17 13 15 7 7 16 15 14 13 7
34 32 32 32 32 33 32 32 31 28 27 26 26 25 25 26 26 24 24 23 23 25 24 23 22 22 21 23 20 23 22 19 16 17 15 17 18 17 16 2 11 21 19 12 11
36 35 34 35 34 34 34 33 32 32 30 28 27 25 24 25 26 22 22 23 24 25 24 23 23 22 22 23 21 24 24 24 20 22 19 18 20 20 25 6 12 21 23 23 20
38 36 36 36 35 35 35 34 33 32 33 33 31 29 27 27 24 22 24 25 24 26 25 25 24 26 26 23 24 26 26 29 25 25 22 24 23 24 26 27 20 25 30 26 20
38 38 37 34 35 35 35 35 35 34 33 32 32 30 30 31 28 25 26 26 25 26 26 26 25 27 27 27 28 29 30 31 31 25 23 26 28 29 30 32 32 32 33 31 27
40 40 39 37 35 34 33 35 34 34 34 31 31 31 33 35 34 29 26 26 27 26 25 26 25 27 28 29 28 31 33 32 32 28 28 27 29 26 32 35 37 39 39 36 34
34 35 37 37 35 34 33 33 33 32 31 30 28 27 32 32 30 28 29 30 28 27 29 29 29 30 31 32 32 33 33 35 34 31 30 26 32 30 29 38 40 44 43 42 37
37 37 36 35 37 36 34 34 33 33 33 32 32 32 33 34 34 33 34 35 34 33 34 36 36 36 35 36 34 36 33 36 38 35 31 30 30 41 38 36 42 43 43 41 41
39 39 37 37 35 34 32 33 33 32 31 32 33 32 33 36 37 37 38 38 37 36 36 35 37 40 43 41 39 40 39 42 43 43 40 40 36 39 49 44 46 46 45 44 47
44 43 41 36 37 36 34 35 36 35 32 33 34 35 35 36 38 40 40 40 38 39 38 38 37 38 42 42 44 45 46 45 46 47 46 44 45 40 40 48 54 49 48 51 52
48 44 43 39 40 41 39 42 39 37 38 39 37 35 34 38 38 39 41 42 42 42 43 44 44 46 44 43 44 47 48 47 51 51 48 50 49 51 49 53 50 48 51 53 54
50 49 45 43 46 41 43 43 42 40 42 44 44 41 41 43 42 44 46 46 47 48 47 46 48 53 52 51 52 52 49 49 51 55 56 56 49 53 56 53 52 52 55 59 62
52 52 52 50 45 47 48 47 48 47 47 48 49 50 48 49 50 53 53 51 51 51 54 52 53 56 57 56 58 58 57 56 57 57 56 57 50 53 59 52 52 56 60 61 61
55 56 52 55 57 54 54 54 53 53 55 51 52 55 54 53 52 52 57 60 57 56 56 52 55 55 58 58 59 55 57 54 53 57 61 57 53 57 57 52 55 58 57 60 61
61 62 59 58 59 64 61 59 57 57 58 56 55 55 58 60 59 60 60 60 59 61 58 49 51 51 54 56 54 55 58 55 61 56 47 55 51 56 61 66 64 65 57 60 64
63 61 60 60 59 60 59 58 61 60 56 58 58 57 59 65 66 66 65 64 59 55 56 52 55 55 56 56 62 63 61 60 59 58 58 62 55 59 62 67 71 69 72 72 72
68 67 64 62 62 63 62 60 62 60 58 57 60 65 66 67 67 68 65 61 63 59 57 59 64 61 61 61 64 65 63 65 67 67 62 67 69 71 71 74 75 75 79 83 87
66 71 73 72 71 70 68 65 62 59 65 64 67 70 71 71 67 65 69 70 70 69 69 71 71 71 72 75 72 71 73 74 76 72 70 78 77 83 86 89 90 92 98 100 100
77 74 76 79 79 79 77 73 67 73 75 74 74 65 67 67 70 73 71 71 72 74 76 77 77 79 80 81 82 80 81 83 87 87 87 87 92 101 107 106 108 108 107 107 113
79 82 85 83 83 81 81 75 72 75 77 80 76 72 73 75 74 75 75 71 79 79 80 79 82 80 83 84 86 89 90 91 94 99 102 98 98 110 122 119 118 119 119 120 124
85 84 84 78 86 90 90 87 77 74 78 80 80 79 76 82 86 86 76 81 80 82 88 89 89 87 88 88 91 93 97 101 99 102 110 115 110 117 125 126 128 122 123 127 127
94 88 85 92 84 88 94 87 91 87 85 84 88 87 88 93 93 94 90 87 87 88 93 95 100 97 96 95 97 100 100 100 106 108 122 129 122 128 127 127 124 124 126 123 120
96 92 89 91 97 96 97 89 99 96 96 92 94 98 98 101 102 97 99 100 99 98 101 102 104 102 101 102 104 103 99 105 123 126 133 137 134 134 127 129 128 129 126 121 116
95 97 97 94 96 103 101 102 102 104 100 102 101 104 108 112 108 105 107 112 109 109 112 112 112 109 110 112 110 110 106 122 132 141 142 141 142 132 132 134 131 128 123 119 114
105 102 102 103 109 104 107 108 102 102 106 109 110 115 118 116 114 113 117 117 119 117 118 121 120 119 114 111 123 128 126 135 144 143 145 134 137 130 136 135 131 126 122 120 118
113 112 108 109 108 111 109 105 106 110 113 116 120 125 127 123 116 121 123 123 125 121 123 127 128 127 125 131 135 133 141 140 132 136 138 139 138 141 133 130 126 123 123 120 115
116 114 116 111 110 115 113 113 118 118 119 121 124 130 132 127 125 129 126 125 131 128 129 128 128 132 129 141 151 145 130 133 135 135 139 142 143 137 134 128 124 121 118 114 111

GFSSW_250_spd_030.txt.gz
Wind_Speed
35 35 34 35 34 31 32 31 31 30 29 27 26 25 25 25 26 26 26 25 22 22 21 21 22 21 22 20 19 21 16 14 15 16 17 17 17 16 10 8 16 17 14 14 10
36 37 36 36 35 34 33 33 34 33 32 29 28 27 26 26 26 25 25 24 24 22 22 23 23 24 24 22 19 23 19 18 18 18 19 20 21 21 15 7 18 21 19 14 11
38 37 37 37 36 36 35 36 35 35 33 32 31 31 29 28 26 26 25 25 23 24 24 25 25 25 26 26 24 24 23 24 20 21 20 21 25 24 27 19 21 23 23 20 19
39 39 39 40 40 38 37 36 36 35 35 34 34 33 34 32 28 27 26 24 24 24 25 24 26 27 25 26 29 29 27 28 24 23 24 27 28 28 26 31 25 28 28 23 22
40 40 40 42 42 40 39 37 35 35 35 34 33 32 33 33 30 30 30 29 29 28 27 24 25 25 25 27 27 30 30 30 29 25 28 30 29 30 29 34 38 35 31 30 30
40 40 40 42 43 41 39 36 36 34 34 34 33 32 32 34 32 31 31 32 30 28 27 27 25 25 28 27 27 31 30 33 31 30 30 28 29 32 33 35 38 37 33 33 33
41 38 39 40 42 42 41 39 37 33 33 35 34 33 33 32 31 32 31 30 30 32 32 31 31 31 32 32 33 34 35 36 35 34 33 31 37 33 35 39 42 35 34 34 35
44 42 41 42 42 41 42 40 40 39 37 36 35 36 35 36 34 34 34 33 35 36 35 36 35 35 35 36 37 38 37 40 40 37 36 34 39 44 43 41 45 38 40 42 44
47 46 44 42 38 38 39 41 42 42 40 39 38 37 39 39 36 35 35 36 37 37 38 39 39 39 40 38 38 39 38 39 42 41 41 39 41 47 52 50 48 46 47 48 47
50 48 45 46 45 44 44 45 44 43 44 42 40 39 37 38 38 36 37 36 38 41 43 42 40 43 43 40 40 41 42 43 45 47 44 42 41 46 48 51 52 54 54 53 51
53 51 50 48 46 45 43 44 46 44 43 42 41 38 39 38 38 38 40 40 40 41 41 43 44 45 45 44 45 46 46 45 48 49 46 48 45 51 52 51 51 54 55 55 54
55 56 53 53 53 54 52 50 49 48 46 44 44 44 42 42 42 44 46 45 45 45 45 45 46 53 52 51 50 51 51 52 51 54 52 51 51 54 55 55 59 61 60 58 57
53 54 55 55 55 56 54 54 52 50 50 52 50 47 47 48 48 50 51 49 51 52 53 52 54 56 55 57 58 59 57 57 58 60 59 57 56 59 61 60 58 61 60 61 64
59 57 55 54 54 55 57 55 56 55 54 50 52 49 51 54 53 58 58 56 55 56 55 53 59 59 60 62 61 60 57 56 61 60 60 62 61 59 61 60 61 61 61 65 64
62 61 58 57 56 59 59 59 61 59 57 56 57 56 58 60 59 61 60 58 55 55 56 57 61 63 63 60 57 57 54 52 55 57 56 57 55 57 64 63 62 62 65 61 67
69 68 66 62 61 63 61 63 65 67 60 62 61 64 64 60 58 57 57 56 53 53 56 58 62 64 64 64 58 57 56 60 63 59 50 58 66 62 63 66 73 66 67 77 74
67 67 66 68 67 68 70 68 70 67 63 64 64 63 62 61 60 59 59 58 61 63 64 62 62 60 63 64 66 67 71 72 68 70 69 69 60 60 62 68 72 75 78 81 76
72 69 65 64 65 69 72 74 71 62 66 64 62 62 63 62 62 62 61 60 61 64 64 64 64 68 68 70 71 70 69 71 71 69 68 67 67 65 67 73 77 77 77 83 94
77 76 73 69 68 70 72 75 70 66 71 71 73 72 70 69 70 68 71 69 70 67 64 62 65 64 69 70 71 74 78 79 80 78 75 70 66 67 75 80 85 86 89 92 93
85 84 82 78 75 77 80 72 70 70 74 79 81 81 80 78 74 73 69 63 69 71 64 65 70 71 77 77 77 81 82 83 86 85 85 79 80 83 86 91 91 91 100 105 105
93 95 89 84 85 86 81 72 74 75 76 86 87 88 86 85 83 81 76 69 68 76 74 71 77 78 78 84 88 85 87 89 90 94 96 91 88 95 101 99 97 98 108 111 108
93 98 93 95 98 94 80 76 75 81 82 79 84 88 86 92 94 94 84 78 79 80 84 85 87 85 91 93 94 94 94 102 99 101 105 108 94 108 113 114 110 109 116 122 121
94 99 96 98 99 96 83 90 83 81 91 93 87 91 93 95 95 93 87 86 87 87 90 92 94 97 97 101 104 105 103 105 109 118 115 121 114 116 119 121 121 124 124 137 136
94 100 99 97 99 103 99 100 97 94 95 93 92 87 88 90 99 97 95 93 96 94 93 98 101 102 106 112 112 112 115 114 118 123 120 120 122 122 123 124 125 134 143 133 130
101 102 102 102 99 102 106 103 104 101 105 101 98 92 96 96 95 103 103 101 102 100 102 105 106 109 113 115 121 124 121 122 130 128 130 128 134 125 129 141 142 133 134 132 131
111 107 109 112 109 109 113 110 112 108 107 106 103 104 105 100 106 110 113 106 108 110 113 113 117 118 121 119 122 129 125 125 131 133 139 137 138 141 149 139 137 135 136 137 134
115 114 117 116 113 113 111 111 110 112 112 108 107 112 111 111 115 116 112 115 117 114 117 123 124 128 125 130 137 136 130 136 139 136 142 147 147 138 141 138 139 142 135 131 132

GFSSW_250_spd_033.txt.gz
Wind_Speed
39 38 39 38 35 34 34 33 33 32 31 30 30 28 27 25 26 27 25 26 27 26 25 24 22 21 22 23 21 20 16 17 17 19 21 22 21 17 13 15 23 15 15 9 11
42 41 40 39 38 37 38 37 35 33 32 32 31 31 28 28 26 26 26 26 26 26 26 25 24 24 23 23 24 23 19 20 19 21 21 22 24 24 20 13 20 25 21 19 14
42 42 42 41 39 40 38 38 36 34 34 33 33 32 32 31 29 29 29 28 27 26 27 26 25 25 25 24 25 24 24 22 21 23 23 24 26 29 27 19 24 20 18 23 26
44 42 43 43 41 39 39 39 38 37 37 36 35 35 34 32 29 31 32 31 29 28 28 28 28 27 26 26 26 26 25 24 22 23 25 28 28 30 30 31 27 29 25 28 30
45 44 43 44 42 41 40 41 41 40 39 38 36 36 36 34 30 32 33 33 32 31 31 31 31 31 27 27 27 29 27 26 25 23 28 30 29 31 33 35 34 31 30 33 37
46 46 45 44 43 42 41 42 42 42 42 40 37 36 36 36 34 33 33 33 34 32 32 32 32 32 32 30 30 31 31 30 30 28 29 31 33 35 36 35 31 34 32 35 39
48 49 47 44 43 44 43 44 44 44 41 41 39 37 37 36 35 33 33 33 35 35 35 34 34 33 34 34 34 32 34 35 36 35 34 36 40 38 38 36 33 32 36 41 40
49 50 51 48 45 44 44 43 44 44 42 43 42 38 38 40 40 37 36 35 36 35 35 34 35 36 37 37 37 36 37 40 39 39 38 38 44 43 43 41 39 39 41 43 45
50 51 51 52 50 46 44 44 44 45 44 44 44 42 42 43 40 38 37 36 36 35 35 36 37 38 39 38 38 40 39 41 43 41 39 39 43 49 49 46 47 46 46 47 48
54 53 53 54 54 52 49 45 45 44 44 46 47 45 45 45 44 42 42 43 39 39 38 38 39 42 44 42 41 43 42 41 44 44 41 42 42 47 50 48 49 50 52 52 52
55 55 54 57 56 56 54 52 49 47 48 48 47 48 48 49 48 47 45 42 41 41 40 41 40 44 44 42 43 45 44 44 47 49 46 49 46 50 51 51 52 54 54 55 56
56 56 57 57 60 59 57 56 56 54 54 52 51 48 46 45 44 45 45 45 45 44 43 44 44 48 47 47 47 49 49 52 52 53 51 53 54 56 57 57 57 58 60 60 61
60 57 57 60 60 62 61 60 59 57 53 52 50 51 51 47 46 48 50 48 48 48 51 48 47 53 54 54 55 56 57 57 57 59 58 59 59 61 62 62 63 64 63 63 64
61 63 56 55 60 64 65 65 65 66 61 58 59 52 54 56 51 55 56 53 53 55 56 52 56 55 57 57 56 56 57 56 56 57 60 60 58 58 60 61 63 64 68 71 73
63 64 64 57 56 61 66 69 69 69 61 59 57 57 58 60 57 59 59 58 58 60 60 60 58 58 55 53 53 55 57 57 58 58 54 56 57 47 53 59 65 65 67 71 76
67 66 67 62 61 64 66 67 69 68 55 55 56 59 62 64 61 61 63 65 66 64 62 60 58 57 58 56 59 62 59 58 59 59 55 59 62 62 66 69 71 73 75 74 77
68 67 64 70 67 69 69 71 75 66 59 60 61 63 64 65 66 65 66 65 65 64 62 61 60 60 59 64 65 63 61 57 57 63 61 62 66 62 65 68 69 70 73 73 66
73 70 69 63 72 76 75 79 79 65 67 65 67 67 66 68 69 70 69 68 66 65 63 60 61 62 63 67 68 65 65 68 67 66 60 59 58 64 72 72 73 73 72 70 74
79 77 74 71 70 74 81 86 73 70 71 73 73 72 72 73 71 72 70 67 65 67 68 66 65 68 68 69 70 70 67 74 74 69 70 67 63 65 68 73 76 79 79 79 78
84 87 82 78 79 78 82 82 75 69 63 67 69 71 72 76 76 73 71 69 73 76 79 79 80 79 72 73 73 72 73 73 78 81 78 74 71 75 75 84 83 85 88 88 91
89 89 85 83 86 89 88 81 77 74 70 72 70 73 70 70 75 76 71 69 75 81 83 85 85 83 87 83 87 83 73 80 85 82 88 84 71 79 91 97 100 98 100 108 113
90 91 87 87 92 92 92 88 83 76 79 80 79 78 77 80 76 76 76 80 78 80 86 88 88 86 92 92 94 81 82 84 87 90 90 94 81 92 101 106 100 109 116 122 126
88 89 91 92 96 95 95 94 90 88 88 86 86 85 84 85 86 81 80 82 87 83 84 92 93 89 93 97 102 101 93 95 94 95 95 102 98 105 107 105 112 119 122 126 129
91 92 94 96 97 92 95 94 96 92 90 88 92 91 94 97 101 96 93 90 87 90 94 94 94 96 93 96 99 103 97 99 99 99 105 106 111 115 118 121 124 127 132 134 129
101 100 97 102 96 95 97 96 95 99 101 95 87 90 89 93 98 96 103 98 96 91 99 91 86 91 93 89 95 103 102 100 102 109 116 114 116 117 129 134 136 137 141 139 141
105 100 99 95 94 98 98 95 98 98 98 100 104 101 100 104 105 107 103 101 99 98 102 103 98 96 99 102 106 107 104 106 112 115 120 126 121 125 135 138 139 144 146 150 153
110 106 101 103 103 101 102 101 101 104 105 106 105 111 109 110 114 116 114 113 110 109 111 111 111 109 109 110 115 111 106 115 119 119 127 126 128 139 142 146 146 152 155 153 155

GFSSW_250_spd_036.txt.gz
Wind_Speed
39 39 39 37 37 36 34 34 33 33 33 31 29 29 28 27 28 27 27 26 26 26 27 26 26 23 21 20 20 21 18 18 19 18 20 20 20 18 14 15 18 19 23 16 15
41 41 40 40 39 38 39 38 36 36 37 34 33 31 31 30 29 29 28 28 27 27 26 25 25 24 24 22 22 21 19 20 20 21 21 22 21 21 17 14 20 21 26 26 22
43 43 42 42 43 42 41 40 39 39 38 37 35 34 33 32 30 31 31 30 28 27 27 27 26 25 23 23 23 23 22 21 20 21 22 25 24 23 20 16 22 23 26 26 27
45 45 44 43 43 42 42 42 39 39 39 39 38 36 35 35 33 32 32 31 29 29 29 29 28 27 26 27 26 24 23 22 22 22 24 25 25 25 25 24 22 25 27 32 36
47 47 47 46 45 45 44 43 42 41 40 40 40 39 37 36 33 35 33 33 31 31 32 32 31 30 29 30 30 29 25 24 23 24 28 28 26 24 24 26 27 28 31 33 33
48 48 49 48 47 46 45 44 44 43 42 41 42 41 39 39 34 33 34 33 32 32 33 34 34 31 32 32 32 31 29 27 25 25 28 29 32 30 29 27 28 31 33 34 34
49 48 48 49 47 48 46 46 45 44 43 42 43 42 41 39 36 34 34 34 34 33 34 33 34 34 34 34 33 31 33 31 31 29 30 34 34 33 31 30 32 32 34 36 37
51 51 50 49 48 48 49 46 45 44 44 45 44 42 41 42 39 36 35 36 37 37 35 34 33 32 33 33 33 34 36 38 37 37 36 38 42 38 35 34 36 35 36 38 40
53 52 49 49 50 50 51 49 47 46 46 44 44 43 42 45 44 41 39 39 37 37 36 36 34 34 35 33 33 34 36 39 40 39 38 38 43 44 38 41 42 43 43 43 44
55 54 53 51 50 49 51 53 51 49 47 45 44 44 44 46 47 44 43 42 40 38 38 38 37 39 41 35 37 38 40 41 44 40 38 39 41 48 43 45 45 47 48 48 49
57 56 54 54 52 53 53 56 58 54 52 48 43 46 46 46 46 46 45 46 45 44 45 42 42 46 41 40 39 41 43 42 45 43 41 43 43 47 48 49 51 53 54 55 55
61 61 60 58 55 55 56 58 58 58 57 54 50 45 45 46 47 49 48 47 47 48 44 43 42 46 44 42 42 43 43 47 46 48 48 48 49 49 51 52 55 56 56 56 56
65 62 62 59 56 57 58 61 60 60 59 59 56 52 53 52 54 55 54 50 48 46 47 45 44 48 48 48 47 46 47 49 50 51 49 47 49 52 54 56 56 55 56 57 56
65 64 61 57 59 61 62 65 63 61 60 56 60 54 56 58 52 55 55 53 50 50 51 47 50 52 54 54 54 50 55 53 54 52 50 50 47 52 57 58 56 58 58 57 59
67 68 65 62 58 62 65 68 68 65 59 58 61 61 60 60 58 59 61 59 55 57 58 56 57 59 59 59 59 58 58 57 55 54 52 52 56 53 58 64 66 63 62 65 63
69 71 69 64 63 65 70 69 67 69 55 59 60 64 66 67 66 63 61 61 61 59 60 61 60 61 64 64 64 62 59 56 57 57 55 60 60 54 55 59 62 68 71 72 70
73 70 67 68 68 69 72 73 72 62 55 53 56 62 68 69 69 66 63 61 61 63 63 65 64 64 65 66 65 61 60 61 59 60 58 61 61 58 61 63 65 69 71 71 73
77 75 73 68 73 74 73 76 78 59 63 58 61 63 61 65 65 65 64 61 61 63 66 68 69 69 68 68 68 65 64 63 64 63 66 61 59 63 67 72 74 76 77 76 80
82 82 80 76 74 78 77 80 66 61 62 72 67 64 62 67 70 70 68 69 69 70 71 72 73 73 72 70 68 67 68 75 74 74 72 70 63 63 71 76 80 82 84 85 82
84 84 82 80 78 79 84 85 70 66 67 65 67 71 70 69 71 71 72 70 74 75 76 76 76 76 74 72 71 74 77 77 81 81 76 76 77 80 82 78 79 86 84 83 82
89 90 86 84 85 86 89 82 78 75 73 70 68 68 67 70 73 75 75 75 77 79 79 79 82 81 81 77 80 79 78 80 85 86 87 84 79 83 94 97 101 97 91 86 87
96 97 91 88 91 92 91 84 83 80 78 77 73 71 73 71 69 71 74 74 72 73 75 76 76 74 79 79 79 82 79 78 80 84 90 96 84 86 96 97 99 103 100 93 92
95 97 94 92 92 93 90 90 88 87 82 79 78 74 78 80 80 80 75 78 81 82 83 83 84 83 81 81 83 84 85 90 92 89 88 93 79 94 92 89 91 93 92 96 102
98 102 102 100 97 95 95 95 95 90 88 84 85 82 82 85 86 87 86 84 86 88 86 89 89 86 88 91 92 93 89 92 92 94 100 95 92 91 97 96 98 96 103 97 105
100 105 100 103 99 96 96 95 92 91 91 88 89 86 86 90 92 93 90 90 91 90 94 93 92 97 96 95 98 94 96 91 89 93 95 93 97 99 103 105 106 108 108 111 115
107 109 104 103 103 97 97 94 91 88 92 91 94 90 93 92 94 91 93 95 98 101 102 102 96 92 95 92 94 100 97 99 99 103 100 104 101 107 108 113 116 118 119 119 122
119 119 112 102 104 104 99 95 93 95 95 96 96 97 101 99 100 100 98 100 102 100 99 97 97 100 103 101 104 102 93 100 100 107 117 117 114 117 115 117 120 126 129 130 134

GFSSW_250_spd_042.txt.gz
Wind_Speed
44 43 42 43 39 39 36 34 34 33 30 26 25 26 25 24 24 24 23 24 23 23 23 22 21 20 17 17 16 15 13 11 12 13 13 8 7 9 11 12 13 11 10 7 7
44 43 44 43 43 43 40 37 36 34 30 30 30 30 28 26 26 26 26 24 25 25 24 23 21 21 20 19 19 17 12 11 11 11 13 11 9 9 12 13 16 16 15 13 10
44 43 43 43 44 43 43 40 39 38 33 32 32 32 30 30 29 28 27 25 24 24 24 24 24 24 23 22 22 19 16 15 13 12 11 9 9 8 10 10 12 16 19 16 13
44 43 42 43 44 44 43 43 41 40 37 36 34 35 34 32 30 30 28 26 25 25 25 25 25 25 24 23 23 22 19 18 15 14 12 10 10 10 12 10 14 15 16 18 21
43 44 45 44 43 44 45 43 43 42 41 40 39 40 37 35 32 32 30 28 27 26 26 26 26 26 25 24 24 23 21 20 17 16 14 12 11 13 14 17 18 19 18 18 19
49 46 46 45 44 45 44 45 42 43 43 41 40 41 37 35 35 34 32 31 29 28 27 25 26 26 26 25 23 22 21 21 20 18 14 13 12 15 16 18 20 20 19 19 20
49 49 49 48 47 45 45 45 46 45 43 42 42 41 38 37 35 34 33 32 31 29 28 27 27 28 28 25 22 22 22 22 22 19 16 14 14 16 17 19 20 20 22 23 24
57 54 51 49 48 47 46 46 47 47 46 45 44 41 41 40 37 35 33 32 32 31 30 29 28 28 28 26 24 22 22 23 21 19 18 20 16 19 21 21 22 21 23 25 27
59 57 57 54 52 49 48 47 47 48 47 45 45 44 41 42 40 36 34 33 31 32 32 31 31 29 29 28 23 24 27 27 23 21 19 22 21 21 22 23 25 26 28 30 31
62 62 59 58 55 53 52 50 47 46 47 44 43 44 44 43 41 38 35 34 33 32 33 33 31 31 34 27 25 29 31 31 26 22 21 22 24 23 23 25 28 30 33 34 34
63 64 61 61 60 56 55 54 53 53 51 48 43 42 43 46 45 42 40 38 37 37 35 35 33 38 33 30 31 33 34 34 29 24 22 25 27 26 27 29 32 34 36 38 38
72 68 66 62 63 60 59 58 58 57 55 54 50 49 48 46 44 47 46 45 45 42 39 40 38 39 36 34 32 34 34 36 32 24 23 27 30 31 33 34 37 38 40 40 41
76 72 68 64 63 61 61 63 63 61 57 54 52 49 50 50 49 48 50 52 51 49 49 42 40 43 41 38 37 36 34 38 35 32 27 29 30 37 38 40 42 43 45 45 45
78 75 71 69 62 64 63 68 66 65 61 51 55 49 48 49 46 51 53 54 55 54 53 45 47 49 49 43 43 36 39 38 39 37 34 37 30 42 46 45 48 48 49 49 50
80 79 74 73 66 64 71 70 69 68 61 55 53 52 51 52 49 53 55 57 56 58 57 52 53 55 52 53 48 42 44 44 45 45 41 40 45 40 51 52 52 53 53 52 54
84 82 77 73 71 68 72 72 72 76 57 52 53 54 56 58 57 57 57 59 60 58 56 58 57 56 56 56 56 52 50 51 51 48 42 48 53 37 53 55 55 56 57 59 60
88 84 82 74 72 82 80 78 77 65 56 59 55 58 59 58 60 61 61 59 57 54 51 57 58 58 56 58 58 58 58 57 53 53 50 53 54 42 50 57 59 59 61 64 65
86 89 85 77 78 85 85 83 83 58 57 61 66 68 66 64 62 63 62 59 56 55 54 52 51 56 55 58 60 60 61 61 59 54 54 54 50 51 57 58 61 62 63 65 67
100 92 93 86 86 88 90 94 76 66 64 64 68 69 70 71 69 67 65 60 59 58 56 54 50 50 53 55 57 56 55 62 60 58 57 55 56 58 60 64 67 69 68 69 72
104 105 101 94 91 95 97 96 81 75 71 69 69 70 70 70 72 72 70 62 62 62 63 60 56 54 54 57 56 57 61 63 62 62 62 59 62 63 65 68 70 72 74 76 76
109 106 104 95 97 103 103 91 88 82 78 78 74 74 65 72 74 72 69 66 67 69 69 66 63 59 60 60 63 61 61 65 67 66 68 68 66 66 67 69 71 74 76 75 75
105 100 104 104 106 106 104 88 92 89 87 84 80 78 76 75 77 74 72 70 71 72 70 70 70 65 62 64 67 67 65 68 69 70 72 71 62 65 69 71 74 77 78 79 79
107 104 99 103 109 107 103 98 98 94 89 89 86 82 78 76 77 73 71 71 72 75 73 75 76 73 69 65 65 66 68 70 74 75 72 76 68 75 73 75 80 84 85 86 88
114 116 110 109 107 108 107 105 101 94 92 93 88 88 85 81 77 74 75 77 78 78 78 80 81 78 74 75 76 74 75 77 81 79 76 75 77 80 80 83 87 90 90 91 90
118 118 114 113 113 112 110 107 106 105 101 99 95 89 89 89 89 81 84 83 83 81 81 83 83 84 82 83 83 82 81 82 83 80 87 79 82 82 85 88 91 93 95 96 98
120 122 117 119 117 114 110 110 112 110 104 100 93 93 94 94 88 87 89 86 83 83 84 86 85 90 89 86 88 88 87 84 88 89 91 91 88 89 97 100 99 100 96 98 101
118 117 121 120 115 114 113 105 101 105 102 95 95 98 97 94 92 92 90 89 88 88 88 90 88 89 89 91 94 98 83 91 91 91 93 93 88 95 94 95 98 102 100 96 99

GFSSW_250_spd_045.txt.gz
Wind_Speed
45 44 43 43 41 39 39 37 36 35 33 32 31 29 28 25 24 26 24 22 23 24 23 23 23 21 21 19 17 14 13 13 12 9 9 8 11 12 10 10 9 8 7 6 8
47 47 45 43 43 42 41 38 39 39 35 36 34 29 28 28 27 25 26 25 23 24 25 25 25 23 22 21 19 18 13 13 14 13 11 9 10 11 12 11 12 11 10 9 9
50 49 48 46 45 44 44 42 42 41 38 37 35 32 32 32 31 29 27 27 26 26 26 25 25 25 24 24 22 21 17 16 17 16 15 12 10 9 13 13 15 13 10 10 10
53 51 49 48 46 45 44 44 43 42 43 40 41 36 34 33 32 31 30 28 27 27 27 27 27 27 26 25 24 23 21 19 20 19 18 16 15 13 12 13 14 15 14 13 14
53 51 51 49 48 47 46 45 44 43 42 42 41 38 36 35 34 35 32 31 29 28 28 28 27 27 27 27 27 26 24 21 20 20 19 18 18 17 15 14 15 15 17 18 16
57 54 51 52 50 48 48 46 45 44 42 40 43 41 41 38 38 40 34 33 32 30 29 30 29 28 28 27 27 26 24 22 21 22 20 18 19 20 18 17 17 17 17 18 19
60 58 56 54 51 50 49 49 47 45 44 43 41 42 42 40 39 38 36 34 33 33 31 30 30 29 29 28 27 26 24 23 23 23 20 19 21 22 21 20 20 18 16 18 21
62 62 60 56 53 50 50 50 50 46 46 45 45 43 39 39 40 40 38 37 36 34 32 31 31 32 32 29 28 26 25 27 28 24 22 19 22 23 23 22 21 22 21 22 22
66 65 61 61 59 54 54 53 51 49 47 48 47 46 45 45 44 40 40 39 36 36 34 32 33 34 33 33 29 27 26 32 27 25 24 22 23 24 25 24 24 23 23 24 25
68 68 65 64 62 60 58 55 51 51 52 51 49 49 47 49 45 42 42 40 38 37 35 34 33 34 39 35 28 27 33 32 30 29 26 27 27 27 27 25 25 25 25 26 27
72 68 70 66 63 63 61 59 58 55 53 56 52 51 48 49 48 45 44 41 39 39 39 35 33 39 41 35 31 34 34 35 37 32 28 29 31 29 27 27 27 28 29 28 30
78 75 72 70 66 62 63 62 65 61 59 58 54 50 47 47 47 46 44 42 44 47 43 44 38 45 39 39 37 37 36 37 37 34 30 30 30 31 28 31 29 30 31 31 33
81 79 79 73 72 68 64 65 67 68 64 60 56 53 52 54 54 53 54 52 51 49 52 48 46 49 47 44 41 42 38 41 37 34 32 33 30 33 32 35 32 34 35 35 36
88 83 82 82 76 71 69 71 71 73 70 57 56 52 52 57 53 53 55 53 55 54 55 49 51 54 52 49 51 45 43 44 41 38 36 33 28 32 38 40 38 39 39 39 39
92 86 83 78 75 75 81 85 81 79 79 63 57 56 55 58 56 54 58 59 54 56 55 50 51 55 57 57 55 53 50 51 48 43 40 36 35 36 43 46 48 45 45 45 44
96 92 87 83 74 72 79 83 84 88 71 67 62 60 61 61 55 57 61 60 60 57 58 56 54 58 57 58 59 57 57 58 55 49 39 45 45 34 43 54 52 53 52 50 49
102 98 94 87 78 82 85 89 90 84 64 62 64 63 66 64 63 61 62 63 64 63 60 63 58 54 56 56 55 55 59 60 56 54 49 51 51 43 48 54 56 56 55 54 54
106 105 98 92 91 85 90 96 99 67 69 68 73 71 66 66 66 66 66 67 65 63 62 60 57 55 53 57 56 53 56 58 59 58 55 53 50 48 55 54 55 56 56 57 59
116 111 104 101 93 93 98 103 92 71 74 76 78 77 72 70 68 71 71 70 68 66 69 66 62 60 58 56 58 52 50 60 59 57 56 53 53 51 53 57 57 57 60 63 65
120 114 112 106 102 97 105 106 86 84 86 81 78 78 76 75 72 72 72 66 68 73 75 71 68 65 60 61 59 54 54 57 58 56 57 52 50 52 56 58 59 60 64 68 70
121 120 110 109 110 109 111 102 90 93 92 90 77 80 80 78 77 72 71 67 66 68 77 76 74 70 67 63 65 64 60 63 65 60 59 56 53 57 58 59 61 65 68 72 74
125 124 113 113 115 118 113 96 101 100 95 92 88 81 80 85 78 77 73 71 72 69 70 72 78 76 73 70 71 68 67 68 67 66 68 67 58 62 62 64 65 69 72 74 75
123 120 111 104 111 113 113 108 105 105 101 93 92 89 88 86 87 81 76 74 75 76 77 75 77 79 78 73 71 72 75 73 74 74 66 74 60 65 66 69 72 75 76 78 80
126 120 119 117 116 112 116 114 112 106 106 103 97 98 96 92 89 87 82 81 77 80 84 86 88 84 80 82 81 78 77 78 79 77 69 71 69 73 73 73 75 80 83 84 83
133 126 121 119 115 113 112 111 114 113 111 111 110 102 98 94 92 90 92 92 88 85 86 86 87 87 83 82 82 80 79 81 82 74 84 69 79 81 81 81 83 84 86 89 91
132 125 126 120 120 123 121 118 111 109 104 104 104 98 102 98 93 92 95 93 92 87 89 90 88 91 86 86 89 89 84 83 81 79 82 79 82 89 87 88 89 88 90 91 94
130 125 124 120 118 124 120 116 112 115 113 107 95 95 95 93 96 95 97 99 96 94 92 95 95 95 90 92 95 99 77 87 83 81 85 87 80 89 92 89 90 93 95 96 95